| time (UTC) | temp C | wind direction | speed KPH | gust KPH | rain 1hr cm | rain 24hr cm | rain mn cm | humidity % | barometer mb |
| 20260505041504 | 21 | 63 | 6.4 | 9.7 | 0.00 | 0.00 | 0.00 | 59 | 999.0 |
| 20260505040002 | 21 | 68 | 6.4 | 12.9 | 0.00 | 0.00 | 0.00 | 59 | 998.8 |
| 20260505034502 | 21 | 334 | 0.0 | 3.2 | 0.00 | 0.00 | 0.00 | 59 | 998.5 |
| 20260505033001 | 22 | 305 | 1.6 | 6.4 | 0.00 | 0.00 | 0.00 | 57 | 998.4 |
| 20260505031606 | 22 | 134 | 1.6 | 8.0 | 0.00 | 0.00 | 0.00 | 55 | 998.3 |
| 20260505030124 | 22 | 137 | 4.8 | 8.0 | 0.00 | 0.00 | 0.00 | 54 | 997.9 |
| 20260505024612 | 22 | 116 | 4.8 | 8.0 | 0.00 | 0.00 | 0.00 | 53 | 997.9 |
| 20260505023059 | 23 | 129 | 4.8 | 8.0 | 0.00 | 0.00 | 0.00 | 51 | 997.5 |
| 20260505021558 | 23 | 156 | 4.8 | 17.7 | 0.00 | 0.00 | 0.00 | 50 | 997.4 |
| 20260505020108 | 23 | 155 | 6.4 | 9.7 | 0.00 | 0.00 | 0.00 | 46 | 996.9 |
| 20260505014557 | 23 | 142 | 3.2 | 6.4 | 0.00 | 0.00 | 0.00 | 45 | 997.4 |
| 20260505013056 | 23 | 178 | 3.2 | 8.0 | 0.00 | 0.00 | 0.00 | 45 | 997.2 |
| 20260505011601 | 24 | 202 | 6.4 | 9.7 | 0.00 | 0.00 | 0.00 | 44 | 996.9 |
| 20260505010110 | 25 | 191 | 6.4 | 8.0 | 0.00 | 0.00 | 0.00 | 42 | 996.6 |
| 20260505004620 | 26 | 190 | 4.8 | 9.7 | 0.00 | 0.00 | 0.00 | 40 | 996.3 |
| 20260505003059 | 26 | 163 | 4.8 | 12.9 | 0.00 | 0.00 | 0.00 | 39 | 996.3 |
| 20260505001553 | 27 | 166 | 6.4 | 9.7 | 0.00 | 0.00 | 0.00 | 36 | 996.3 |
| 20260505000104 | 27 | 175 | 8.0 | 14.5 | 0.00 | 0.00 | 0.00 | 34 | 996.4 |
| 20260504234553 | 28 | 170 | 8.0 | 19.3 | 0.00 | 0.00 | 0.00 | 34 | 996.8 |
| 20260504233052 | 28 | 153 | 12.9 | 19.3 | 0.00 | 0.00 | 0.00 | 35 | 996.8 |
| 20260504231619 | 28 | 182 | 12.9 | 19.3 | 0.00 | 0.00 | 0.00 | 34 | 996.8 |
| 20260504230050 | 28 | 125 | 3.2 | 12.9 | 0.00 | 0.00 | 0.00 | 33 | 996.5 |
| 20260504224549 | 28 | 133 | 4.8 | 12.9 | 0.00 | 0.00 | 0.00 | 33 | 996.8 |
| 20260504223049 | 29 | 98 | 3.2 | 12.9 | 0.00 | 0.00 | 0.00 | 30 | 996.8 |
| 20260504221625 | 29 | 136 | 6.4 | 20.9 | 0.00 | 0.00 | 0.00 | 27 | 996.9 |
| 20260504220046 | 29 | 116 | 4.8 | 12.9 | 0.00 | 0.00 | 0.00 | 28 | 997.2 |
| 20260504214546 | 29 | 126 | 4.8 | 16.1 | 0.00 | 0.00 | 0.00 | 26 | 997.4 |
| 20260504213046 | 30 | 109 | 11.3 | 24.1 | 0.00 | 0.00 | 0.00 | 25 | 997.4 |
| 20260504211546 | 30 | 157 | 6.4 | 17.7 | 0.00 | 0.00 | 0.00 | 26 | 997.5 |
| 20260504210048 | 30 | 97 | 8.0 | 19.3 | 0.00 | 0.00 | 0.00 | 24 | 997.8 |
| 20260504204542 | 30 | 109 | 8.0 | 22.5 | 0.00 | 0.00 | 0.00 | 25 | 998.0 |
| 20260504203044 | 30 | 107 | 9.7 | 19.3 | 0.00 | 0.00 | 0.00 | 27 | 998.2 |
| 20260504201544 | 30 | 85 | 9.7 | 17.7 | 0.00 | 0.00 | 0.00 | 26 | 998.5 |
| 20260504200040 | 29 | 157 | 8.0 | 22.5 | 0.00 | 0.00 | 0.00 | 28 | 998.6 |
| 20260504194546 | 29 | 165 | 8.0 | 17.7 | 0.00 | 0.00 | 0.00 | 27 | 999.0 |
| 20260504193044 | 29 | 132 | 8.0 | 20.9 | 0.00 | 0.00 | 0.00 | 27 | 999.0 |
| 20260504191604 | 30 | 121 | 11.3 | 20.9 | 0.00 | 0.00 | 0.00 | 26 | 999.0 |
| 20260504190038 | 30 | 131 | 9.7 | 16.1 | 0.00 | 0.00 | 0.00 | 27 | 999.1 |
| 20260504184542 | 28 | 88 | 6.4 | 19.3 | 0.00 | 0.00 | 0.00 | 25 | 999.1 |
| 20260504183031 | 29 | 62 | 4.8 | 14.5 | 0.00 | 0.00 | 0.00 | 25 | 999.5 |
| 20260504181533 | 29 | 79 | 14.5 | 24.1 | 0.00 | 0.00 | 0.00 | 25 | 999.7 |
| 20260504180034 | 28 | 69 | 9.7 | 24.1 | 0.00 | 0.00 | 0.00 | 24 | 999.8 |
| 20260504174527 | 28 | 82 | 11.3 | 19.3 | 0.00 | 0.00 | 0.00 | 25 | 1000.0 |
| 20260504173025 | 28 | 67 | 9.7 | 24.1 | 0.00 | 0.00 | 0.00 | 24 | 1000.0 |
| 20260504171521 | 27 | 80 | 3.2 | 14.5 | 0.00 | 0.00 | 0.00 | 28 | 1000.1 |
| 20260504140103 | 20 | 210 | 11.3 | 19.3 | 0.00 | 0.00 | 0.00 | 46 | 1000.2 |
| 20260504081511 | 18 | 216 | 16.1 | 25.7 | 0.00 | 0.00 | 0.00 | 45 | 1001.4 |
| 20260504044538 | 22 | 211 | 16.1 | 30.6 | 0.00 | 0.00 | 0.00 | 33 | 1003.2 |
| 20260504043040 | 21 | 215 | 22.5 | 30.6 | 0.00 | 0.00 | 0.00 | 34 | 1003.3 |